Location: Champseau
(45.8333°N, 1.7667°E)
Time: 17:44:46
(UTC+00:00)

STRAND 1 - Pass Details

Date: 29 November 2021
Orbit: 768 x 780 km, 98.4° (Epoch: 23 January)

Event Time Altitude Azimuth Distance (km) Brightness Sun altitude
Rises 05:22:03 0° 143° (SE) 3,250 ? -18.5°
Reaches altitude 10° 05:24:28 10° 136° (SE) 2,325 ? -18.1°
Maximum altitude 05:29:14 40° 68° (ENE) 1,135 ? -17.3°
Drops below altitude 10° 05:34:00 10° 360° (N) 2,332 ? -16.5°
Sets 05:36:25 0° 353° (N) 3,262 ? -16.1°
